ONEWEB-0262, 48980

Orbit data source: Space-Track

ONEWEB-0262, 48980 is a payload satellite owned by One Web (NAA) (UK) in LEO that was launched on Thu, 01 Jul 2021 UTC via a SOYUZ-2-1B launch vehicle from the Vostochny Cosmodrome (VOSTO). Payload-class satellites include a variety of spacecraft equipped with specific instruments for various scientific and technological missions. These include communications satellites like Starlink; space stations such as the ISS; scientific satellites like the Hubble; Earth observation satellites from companies like Planet Labs, Umbra, and HawkEye 360; GPS; miniature CubeSats for education and research; and military/defense satellites.

Loading next visibility...
Identifier
48980, 2021-060P
Orbit
LEO
Country
Flag of UKUK
Related business
Manufacturer
One Web
Mission
Operational Commercial Communications
Bus & Motor
ARROW, Unknown motor
Mass
148 kg wet, ~140 kg dry
Launch date (UTC)
2021-07-01 (5 years ago)
Launch vehicle
SOYUZ-2-1B
Launch site
Vostochny Cosmodrome (VOSTO)
Object type
Payload
Rocket body
Debris
Shape & HBR
Trap Box + 2 Pan, 6.7 m
Radar Cross Section
3.464 m², Large (>1 m²)

Expand to show TLE details & history
Last TLE update: 2 days ago

TLE from 2 days ago
0 ONEWEB-0262
1 48980U 21060P   26171.38329000 -.00011228  00000-0 -29417-1 0  9990
2 48980  87.9093 228.1349 0002643 110.8275 249.3139 13.16651152240047
Epoch: 2026-06-20T09:11Z
TLE epoch observation values (Epoch: 2026-06-20T09:11:56.256Z)
Latitude
-0.00007°
Longitude
-178.4482°
Altitude
1,201.143 km
Speed
7.253 km/s
True Right ascension
15h 12m 32s
True Declination
0° 00' 00"
Sunlit
Object was in full shadow at epoch
Visualization orbit readout
Latitude
Unknown
Longitude
Unknown
Altitude
Unknown
Speed
Unknown
Apparent Right ascension
Unknown
Apparent Declination
Unknown
Sunlit
N/A
Visualization observer readout
Local Sidereal Time
21:36:12
Azimuth
Unknown
Elevation
Unknown
Doppler factor
Unknown
Orbital elements
Apogee altitude
1,196.65 km
Perigee altitude
1,192.647 km
Semi-major axis
7,572.786 km
Eccentricity
0.00026
Inclination
87.9093°
RAAN
228.1349°
Arg. of periapsis
110.8275°
True anomaly
249.28557°
Mean anomaly
249.3139°
Eccentric anomaly
249.29973°
Mean motion
3.29352 °/min
Orbital period
109.31 mins
BSTAR
-0.029417
Loading maneuver chart data...
Computing Atmospheric mass density...
Loading historical data...
Loading historical data...
Loading historical data...
Loading historical data...
Loading historical data...
Loading historical data...
Loading historical data...

Documentation

Showing up to 5 results
|